Flag for United Kingdom Weather past 2 weeks in Plymouth, England, United Kingdom

Now
45 °F

Sunny.


Feels Like: 45 °F
Forecast: 54 / 63 °F
Wind: No wind

Location: Exeter Airport

Current Time: Aug 21, 2014 at 7:55:46 AM

Latest Report: Aug 21, 2014 at 7:20 AM


Visibility: 10 mi

Pressure: 30.04 "Hg

Humidity: 93%

Dew point: 43 °F

Location of PlymouthLocation

Historic Weather in Plymouth — Graph

°F

Plymouth temperature yesterday

Maximum temperature yesterday: 64 °F (at 3:20 PM)
Minimum temperature yesterday: 41 °F (at 5:20 AM)
Average temperature yesterday: 54 °F

Past Weeks' High & Low Weather Summary

 TemperatureHumidityPressure
High73 °F (Aug 6, 2:20 PM)100% (Aug 6, 6:20 AM)30.21 "Hg (Aug 6, 6:20 AM)
Low41 °F (Aug 20, 5:20 AM)33% (Aug 7, 3:20 PM)29.27 "Hg (Aug 10, 8:50 AM)
Average60 °F74%29.88 "Hg
* Reported Aug 6 6:20 AM — Aug 21 6:50 AM, Plymouth, Weather by CustomWeather, © 2014

Note: Actual official high and low records may vary slightly from our data, if they occured in-between our weather recording intervals... More about our weather records

Advertising

Plymouth weather history for previous 24 hours

 ConditionsComfort  
Time TempWeatherWind HumidityBarometerVisibility
6:50 AM
Aug 21
43 °FClear.No wind100%30.04 "Hg10 mi
6:20 AM41 °FClear.2 mph100%30.04 "Hg10 mi
1:50 AM46 °FPassing clouds.3 mph82%30.09 "HgN/A
1:20 AM45 °FPassing clouds.3 mph87%30.09 "HgN/A
12:50 AM46 °FPassing clouds.2 mph82%30.09 "HgN/A
12:20 AM46 °FPassing clouds.3 mph82%30.09 "HgN/A
11:20 PM
Aug 20
48 °FPassing clouds.5 mph76%30.09 "HgN/A
10:50 PM50 °FPassing clouds.2 mph76%30.09 "HgN/A
9:50 PM52 °FPassing clouds.5 mph72%30.09 "HgN/A
9:20 PM54 °FPassing clouds.7 mph67%30.09 "HgN/A
8:50 PM54 °FPassing clouds.7 mph67%30.09 "HgN/A
8:20 PM55 °FPassing clouds.7 mph59%30.09 "HgN/A
7:50 PM59 °FPassing clouds.9 mph51%30.09 "HgN/A
7:20 PM59 °FPassing clouds.10 mph51%30.09 "HgN/A
6:50 PM61 °FPassing clouds.12 mph48%30.07 "HgN/A
6:20 PM61 °FPassing clouds.13 mph45%30.07 "HgN/A
5:50 PM63 °FPassing clouds.14 mph45%30.07 "HgN/A
5:20 PM63 °FPassing clouds.13 mph45%30.07 "HgN/A
4:50 PM64 °FPassing clouds.13 mph43%30.07 "HgN/A
4:20 PM64 °FPassing clouds.15 mph40%30.07 "HgN/A
3:50 PM64 °FPassing clouds.13 mph43%30.07 "HgN/A
3:20 PM64 °FPassing clouds.15 mph43%30.07 "HgN/A
2:50 PM63 °FPassing clouds.14 mph49%30.07 "HgN/A
2:20 PM63 °FPassing clouds.8 mph52%30.07 "HgN/A
1:50 PM61 °FPassing clouds.6 mph59%30.09 "HgN/A
1:20 PM57 °FScattered clouds.8 mph77%30.09 "HgN/A
12:50 PM59 °FScattered showers. Scattered clouds.12 mph63%30.09 "HgN/A
12:20 PM61 °FScattered clouds.8 mph59%30.09 "HgN/A
11:50 AM59 °FScattered clouds.9 mph63%30.09 "HgN/A
11:20 AM61 °FScattered clouds.8 mph63%30.09 "HgN/A
10:50 AM59 °FScattered clouds.6 mph68%30.09 "HgN/A
10:20 AM57 °FPassing clouds.3 mph77%30.09 "HgN/A
9:50 AM55 °FPassing clouds.No wind77%30.09 "HgN/A
9:20 AM50 °FPassing clouds.2 mph88%30.09 "HgN/A
8:50 AM48 °FPassing clouds.No wind94%30.07 "HgN/A
8:20 AM45 °FScattered showers. Passing clouds.2 mph93%30.07 "HgN/A
7:50 AM45 °FPassing clouds.3 mph93%30.07 "HgN/A
7:20 AM43 °FPassing clouds.2 mph93%30.07 "HgN/A
Weather by CustomWeather, © 2014

See weather overviewHow to use our weather pages